Regional Weather Roundup
Issued by NWS Glasgow, MT

Home | Current Version | Previous Version | Text Only | Print | Product List | Glossary On
Versions: 1 2 3 4 5 6 7 8 9 10 11 12 13 14 15 16 17 18 19 20 21 22 23 24 25 26 27 28 29 30 31 32 33 34 35 36 37 38 39 40 41 42 43 44 45 46 47 48 49 50
000
ASUS45 KGGW 031715
RWRGGW
HOURLY REGIONAL WEATHER ROUNDUP FOR NORTHEAST MONTANA
NATIONAL WEATHER SERVICE GLASGOW MONTANA
1000 AM MST SAT DEC 03 2016

NOTE: "FAIR" INDICATES FEW OR NO CLOUDS BELOW 12,000 FEET WITH NO
SIGNIFICANT WEATHER AND/OR OBSTRUCTIONS TO VISISBILITY.

NORTHEAST MONTANA


CITY           SKY/WX    TMP DP  RH WIND       PRES   REMARKS
GLASGOW          N/A     35  26  69 W12       29.74S
PLENTYWOOD       N/A     27  27 100 S7          N/A
WOLF POINT     CLOUDY    34  27  75 SW5       29.78F
JORDAN           N/A     38  23  55 W13       29.80R
SIDNEY         LGT SNOW  25  23  92 S13       29.83S FOG
GLENDIVE       CLOUDY    28  22  78 S9        29.83S
MALTA            N/A     38  26  62 W9G25       N/A
SCOBEY           N/A     29  23  78 CALM      29.72S HAZE

FORT PECK REPORTS


CITY           SKY/WX    TMP DP  RH WIND       PRES   REMARKS
FORT PECK        N/A     39  27  62 SW18        N/A
THE PINES        N/A     39  26  59 S3G14       N/A

SOUTHEAST MONTANA


CITY           SKY/WX    TMP DP  RH WIND       PRES   REMARKS
BILLINGS       CLOUDY    36  16  44 SW15      29.91R
MILES CITY     CLOUDY    29  23  78 S7        29.84S
BAKER          CLOUDY    30  21  69 SW13      29.85S
LIVINGSTON     CLOUDY    34  15  46 SW28G41   29.94S

CENTRAL MONTANA


CITY           SKY/WX    TMP DP  RH WIND       PRES   REMARKS
HAVRE          CLOUDY    33  24  69 SW18G28   29.79R
LEWISTOWN      SUNNY     36  23  59 SW15      29.84R
GREAT FALLS    MOSUNNY   36  24  62 SW15G24   29.86R
CUT BANK       SUNNY     36  22  56 W28       29.83R
HELENA         CLOUDY    39  22  50 W12G23    29.97R
BUTTE          CLOUDY    32  19  58 W14G20    30.00R
BOZEMAN        CLOUDY    30  23  75 W9        30.01R

WESTERN MONTANA


CITY           SKY/WX    TMP DP  RH WIND       PRES   REMARKS
MISSOULA       CLOUDY    31  29  92 CALM      30.08R
KALISPELL      NOT AVBL

NORTH DAKOTA


CITY           SKY/WX    TMP DP  RH WIND       PRES   REMARKS
WILLISTON      CLOUDY    25  20  81 S7        29.82F
DICKINSON      SUNNY     19  17  92 S7        29.83S
MINOT          SUNNY     26  22  84 S16G26    29.88S
BISMARCK       MOSUNNY   23  22  96 SE17      29.97F

SOUTHERN SASKATCHEWAN


CITY           SKY/WX    TMP DP  RH WIND       PRES   REMARKS
REGINA         FLURRIES  25  23  93 SE12      29.68S
ESTEVAN        CLOUDY    28  21  74 S14G21    29.78F
SWIFT CURRENT  LGT SNOW  27  25  93 W18       29.64R




USA.gov is the U.S. government's official web portal to all federal, state and local government web resources and services.